Regional Weather Roundup
Issued by NWS Kansas City/Pleasant Hill, MO

Home | Current Version | Previous Version | Graphics & Text | Print | Product List | Glossary Off
Versions: 1 2 3 4 5 6 7 8 9 10 11 12 13 14 15 16 17 18 19 20 21 22 23 24 25 26 27

000
ASUS43 KEAX 301110
RWREAX

WEATHER ROUNDUP FOR EASTERN KANSAS AND NORTHWEST MISSOURI
NATIONAL WEATHER SERVICE KANSAS CITY/PLEASANT HILL MO
600 AM CDT SUN APR 30 2017

KSZ040-057-103>105-MOZ028-029-037-043-301200-
...KANSAS CITY METROPOLITAN AREA...

CITY           SKY/WX    TMP DP  RH WIND       PRES   REMARKS
K.C. INTL      LGT RAIN  43  42  97 NE18      29.58F FOG     WCI  35
K.C. DOWNTOWN  CLOUDY   N/A N/A N/A NE12      29.59F FOG
LEES SUMMIT    CLOUDY    45  45 100 NE15      29.57F FOG
OLATHE - IXD   LGT RAIN  43  43 100 NE16      29.53F FOG
OLATHE - OJC   LGT RAIN  43  43 100 NE17G25   29.54F FOG
LAWRENCE       CLOUDY    43  43 100 NE17G26   29.55F FOG

$$

MOZ001>008-011>017-020>025-030>033-038>040-044>046-053-054-301200-
...NORTHERN AND CENTRAL MISSOURI...

CITY           SKY/WX    TMP DP  RH WIND       PRES   REMARKS
ST. JOSEPH     CLOUDY    42  42 100 NE16G24   29.64F WCI  34
MOSBY          CLOUDY    43  43 100 NE8       29.63F FOG
WHITEMAN AFB   CLOUDY    52  52 100 NE6       29.60F
CLINTON        CLOUDY    57  57 100 NE10      29.57F
SEDALIA        CLOUDY    57  57 100 N5        29.64R
WARSAW         NOT AVBL
CHILLICOTHE      N/A     44  43  96 N15G23    29.68F
KIRKSVILLE     CLOUDY    43  11  27 NE22G28   29.69F HAZE    WCI  34

$$

MOZ041-047>049-056>058-063>065-088>090-097-301200-
...EASTERN AND SOUTHERN MISSOURI...

CITY           SKY/WX    TMP DP  RH WIND       PRES   REMARKS
ST. LOUIS INTL LGT RAIN  52  50  93 E8        29.75F
SPIRIT OF STL  LGT RAIN  50  50 100 E10       29.71F
COLUMBIA       CLOUDY    54  54 100 SE15G23   29.64R
JEFFERSON CITY LGT RAIN  57  54  89 E15G23    29.63F
ROLLA          LGT RAIN  61  32  33 E21G30    29.63F
OSAGE BEACH    CLOUDY    62  61  96 E12       29.60F
SPRINGFIELD    TSTM      64  62  93 SE16      29.56F
BRANSON        FOG       63  63 100 SE10      29.62R VSB 3/4
JOPLIN         LGT RAIN  59  58  96 SW14      29.57R FOG

$$

IAZ060-094-KSZ022-034>040-054-083-096-NEZ052-066-093-301200-
...KANSAS...SOUTHEAST NEBRASKA AND IOWA...

CITY           SKY/WX    TMP DP  RH WIND       PRES   REMARKS
TOPEKA         LGT RAIN  43  43 100 NE21G30   29.54F FOG     WCI  34
MANHATTAN      RAIN      41  32  70 NE16G24   29.62R WCI  33
EMPORIA        RAIN      42  42 100 VRB3      29.59R FOG
CHANUTE        CLOUDY    55  53  93 N7        29.48F
WICHITA        DRIZZLE   44  41  89 E8        29.49R
OMAHA          RAIN      39  35  86 N16       29.80F FOG     WCI  30
LINCOLN        LGT RAIN  39  37  92 NE28G38   29.75F FOG     WCI  28
FALLS CITY     LGT RAIN  41  40  96 NE15G23   29.66F FOG     WCI  33
LAMONI         CLOUDY    41  40  96 NE20G29   29.72F WCI  32
DES MOINES     DRIZZLE   41  39  93 NE15G22   29.83F WCI  33

$$





USA.gov is the U.S. government's official web portal to all federal, state and local government web resources and services.